01:07
Airports
History
Links
Donate
Help keep this website running!
PayPal
Bitcoin
This page is community maintained. The information is intended for PC simulator navigation or reference.
Always use approved charts for navigation.
EDCE
Eggersdorf Muencheberg
Eggersdorf Muencheberg (EDCE)
M√ľncheberg, Brandenburg, Germany (15374)
(U)
Lat/Lng:52° 28' 44.99" N / 14° 5' 0.01" E
52.479164 / 14.083337
Elevation:220'ft / 67mMSL
ID / ICAO:EDCE
Runways:1
Longest:06-24
Asphalt 2,382m / 7,814ft
Nearby Weather00:50 GMT 2017-11-18
Nearby weather at EDDB, Berlin Schoenefeld located 24.7 nautical miles from EDCE
Altimeter: 30.18
Visibility: 6.2 statute miles
Wind: 4 knots (from 180°)
Temp: 1°c / 34°f
Humidity: %

METAR: EDDB 180050Z 18004KT 9999 SCT046 01/00 Q1022 NOSIG

(Powered by phpweather)
Nearby VORs <50NM
Nearby NDBs
Runway 06 / 24
Dimensions:2381.8 x 39.9m 7814' x 131'ft
Surface:Asphalt
Edge Lights:Medium intensity
Runway 06 [A]Runway 24 [B]
Heading:059°TH 239°TH
Lat:
Lng:
52° 28' 25.72"N
14° 4' 5.2"E
52° 29' 4.27"N
14° 5' 54.83"E
ALS:RAILRAIL
User Notes and Comments
52° 28' 44.99" N / 14° 5' 0.01" E
Distance To
Airport ID:
Nearby Airports
4 Fuerstenwalde 6.1 NM
EDAL S 174°
(C) Strausberg 9.9 NM
EDAY NW 314°
(U) NEUHARDENBERG 11.4 NM
EDON NE 35°
(C) Werneuchen 16.7 NM
EDBW NW 309°
(C) Berlin Schoenefeld 24.7 NM
EDDB ( WX ) WSW 253°
(U) [X] Berlin Tempelhof 28.6 NM
EDDI ( WX ) W 269°
(U) EISENHUTTENSTADT 28.8 NM
EDAE SE 132°
VFR Chart
Flight Planning at SkyVector.com